Charleston, SC

4:29 AM EST on December 14, 2017 (GMT -0500)
Charleston Air Force Base-International

Weather History for KCHS - August, 2013

Change the Weather History Date:

Friday, August 30, 2013

  Actual Average Record
Temperature  
Mean Temperature 83 °F 80 °F  
Max Temperature 90 °F 88 °F 96 °F (1948)
Min Temperature 75 °F 71 °F 59 °F (1986)
Degree Days  
Heating Degree Days 0 0  
Month to date heating degree days 0 0  
Since 1 June heating degree days 0 1  
Since 1 July heating degree days 0 0  
Cooling Degree Days 18 14  
Month to date cooling degree days 497 479  
Year to date cooling degree days 1837 1791  
Since 1 June cooling degree days 1490 1429  
Growing Degree Days 32 (Base 50)    
Moisture  
Dew Point 73 °F    
Average Humidity 77    
Maximum Humidity 94    
Minimum Humidity 59    
Precipitation  
Precipitation 0.00 in 0.24 in 3.75 in (1985)
Month to date precipitation 3.95 6.91  
Year to date precipitation 46.06 35.40  
Sea Level Pressure  
Sea Level Pressure 29.96 in    
Wind  
Wind Speed 8 mph (ENE)    
Max Wind Speed 16 mph    
Max Gust Speed 20 mph    
Visibility 9 miles    
Events      
T = Trace of Precipitation, MM = Missing Value Source: NWS Daily Summary

Daily Weather History Graph

Daily Weather History Graph

Search for Another Location

Airport or City:

Trip Planner

Search our weather history database for the weather conditions in past years. The results will help you decide how hot, cold, wet, or windy it might be!

Date:

Astronomy

Aug. 30, 2013 Rise Set
Actual Time 6:53 AM EDT 7:47 PM EDT
Civil Twilight 6:28 AM EDT 8:12 PM EDT
Nautical Twilight 5:58 AM EDT 8:42 PM EDT
Astronomical Twilight 5:27 AM EDT 9:12 PM EDT
Moon 1:40 AM EDT (8/30) 3:52 PM EDT (8/30)
Length of Visible Light 13h 44m
Length of Day
12h 53m
Waning Crescent, 29% of the Moon is Illuminated
Aug 30
Waning Crescent
Sep 5
New
Sep 12
First Quarter
Sep 19
Full
Sep 26
Last Quarter

Hourly Weather History & Observations

Time (EDT) Temp. Heat Index Dew Point Humidity Pressure Visibility Wind Dir Wind Speed Gust Speed Precip Events Conditions
12:56 AM 78.1 °F - 73.0 °F 84% 29.94 in 10.0 mi Calm Calm - N/A   Mostly Cloudy
1:56 AM 78.1 °F - 73.9 °F 87% 29.92 in 7.0 mi NNE 6.9 mph - N/A   Overcast
2:56 AM 77.0 °F - 73.9 °F 90% 29.92 in 8.0 mi NE 5.8 mph - N/A   Scattered Clouds
3:50 AM 77.0 °F - 73.4 °F 89% 29.93 in 6.0 mi NE 9.2 mph - N/A   Scattered Clouds
3:56 AM 77.0 °F - 73.9 °F 90% 29.92 in 7.0 mi ENE 9.2 mph - N/A   Scattered Clouds
4:56 AM 77.0 °F - 73.9 °F 90% 29.94 in 9.0 mi ENE 8.1 mph - N/A   Scattered Clouds
5:56 AM 77.0 °F - 73.0 °F 88% 29.94 in 7.0 mi NE 6.9 mph - N/A   Scattered Clouds
6:56 AM 77.0 °F - 73.0 °F 88% 29.97 in 10.0 mi NE 8.1 mph - N/A   Mostly Cloudy
7:56 AM 77.0 °F - 73.0 °F 88% 29.98 in 10.0 mi ENE 9.2 mph - N/A   Mostly Cloudy
8:56 AM 79.0 °F - 73.0 °F 82% 30.00 in 10.0 mi NE 8.1 mph - N/A   Mostly Cloudy
9:56 AM 82.0 °F 87.9 °F 73.9 °F 76% 30.01 in 10.0 mi NE 10.4 mph - N/A   Mostly Cloudy
10:56 AM 84.9 °F 92.1 °F 73.9 °F 69% 30.00 in 10.0 mi NE 5.8 mph - N/A   Scattered Clouds
11:56 AM 86.0 °F 93.0 °F 73.0 °F 65% 30.00 in 10.0 mi NNE 6.9 mph - N/A   Mostly Cloudy
12:56 PM 88.0 °F 95.6 °F 73.0 °F 61% 29.99 in 10.0 mi NE 9.2 mph - N/A   Mostly Cloudy
1:56 PM 87.1 °F 93.6 °F 72.0 °F 61% 29.97 in 10.0 mi NNE 8.1 mph - N/A   Scattered Clouds
2:56 PM 88.0 °F 94.7 °F 72.0 °F 59% 29.96 in 10.0 mi NE 9.2 mph - N/A   Mostly Cloudy
3:56 PM 84.9 °F 91.4 °F 73.0 °F 67% 29.94 in 10.0 mi East 8.1 mph - N/A   Mostly Cloudy
4:56 PM 84.9 °F 90.7 °F 72.0 °F 65% 29.94 in 10.0 mi East 13.8 mph - N/A   Scattered Clouds
5:56 PM 84.9 °F 89.4 °F 70.0 °F 61% 29.95 in 10.0 mi East 13.8 mph - N/A   Partly Cloudy
6:56 PM 82.9 °F 87.0 °F 70.0 °F 65% 29.96 in 10.0 mi ESE 13.8 mph - N/A   Partly Cloudy
7:56 PM 80.1 °F 83.8 °F 72.0 °F 76% 29.97 in 10.0 mi East 8.1 mph - N/A   Scattered Clouds
8:56 PM 79.0 °F - 73.0 °F 82% 29.97 in 10.0 mi ENE 5.8 mph - N/A   Scattered Clouds
9:56 PM 78.1 °F - 73.9 °F 87% 29.96 in 10.0 mi East 5.8 mph - N/A   Scattered Clouds
10:17 PM 78.8 °F - 73.4 °F 83% 29.96 in 10.0 mi ENE 4.6 mph - N/A   Partly Cloudy
10:56 PM 77.0 °F - 73.0 °F 88% 29.96 in 10.0 mi ENE 4.6 mph - N/A   Scattered Clouds
11:56 PM 75.9 °F - 73.0 °F 91% 29.95 in 10.0 mi NE 4.6 mph - N/A   Scattered Clouds